HK6REC-23 Weather Reports


time (UTC)temp
F
wind
direction
speed
knots
gust
knots
rain 1hr
in
rain 24hr
in
rain mn
in
humidity
%
barometer
mb
20260504150727 71 138 1.7 1.7 0.00 0.00 0.00 90 1015.0
20260504140721 65 124 1.7 0.9 0.00 0.00 0.00 95 1015.0
20260504130715 59 107 0.9 0.9 0.00 0.00 0.00 95 1015.0
20260504110704 57 301 0.0 0.0 0.00 0.00 0.00 91 1015.0
20260504081648 55 290 0.0 0.0 0.00 0.00 0.00 91 1015.0
20260504080647 58 290 0.0 0.0 0.00 0.00 0.00 91 1014.0
20260504050629 53 285 0.9 0.9 0.00 0.00 0.00 90 1016.0
20260504045628 55 285 0.9 0.9 0.01 0.00 0.00 90 1016.0
20260504044627 55 285 0.9 0.9 0.02 0.00 0.00 90 1016.0
20260504043626 54 299 0.9 0.9 0.01 0.00 0.00 90 1016.0
20260504042625 57 299 1.7 0.9 0.00 0.00 0.00 90 1016.0
20260504041624 54 299 0.9 0.9 0.00 0.00 0.00 90 1016.0
20260504040623 57 299 1.7 0.9 0.00 0.00 0.00 90 1016.0
20260504035622 55 299 0.9 0.9 0.00 0.00 0.00 93 1016.0
20260504034621 58 299 0.9 0.9 0.00 0.00 0.00 93 1016.0
20260504033620 61 299 1.7 0.9 0.00 0.00 0.00 93 1016.0
20260504032619 53 299 1.7 1.7 0.00 0.00 0.00 89 1016.0
20260504031618 53 299 1.7 1.7 0.00 0.00 0.00 89 1016.0
20260504030617 53 299 1.7 1.7 0.00 0.00 0.00 89 1016.0
20260504025616 55 299 1.7 1.7 0.00 0.00 0.00 89 1016.0
20260504024615 55 299 1.7 1.7 0.00 0.00 0.00 89 1016.0
20260504023614 55 299 1.7 1.7 0.00 0.00 0.00 89 1016.0
20260504022613 57 306 1.7 1.7 0.00 0.00 0.00 89 1015.0
20260504021612 57 306 1.7 1.7 0.00 0.00 0.00 89 1015.0
20260504020611 57 306 1.7 1.7 0.00 0.00 0.00 89 1015.0
20260504015611 55 306 0.9 0.9 0.00 0.00 0.00 92 1015.0
20260504014610 58 306 0.9 0.9 0.00 0.00 0.00 92 1015.0
20260504013609 61 306 1.7 1.7 0.00 0.00 0.00 92 1015.0
20260504012608 54 283 2.6 2.6 0.00 0.00 0.00 89 1014.0
20260504011607 54 283 2.6 2.6 0.00 0.00 0.00 89 1014.0
20260504010606 54 283 2.6 2.6 0.00 0.00 0.00 89 1014.0
20260504005605 56 283 2.6 2.6 0.00 0.00 0.00 89 1014.0
20260504004604 56 283 2.6 2.6 0.00 0.00 0.00 89 1014.0
20260504003603 56 283 2.6 2.6 0.00 0.00 0.00 89 1014.0
20260504002602 58 267 2.6 2.6 0.00 0.00 0.00 89 1013.0
20260504001601 58 267 2.6 2.6 0.00 0.00 0.00 89 1012.0
20260504000600 57 280 0.9 2.6 0.00 0.00 0.00 89 1012.0
20260503235559 60 280 1.7 2.6 0.00 0.00 0.00 89 1012.0
20260503234558 57 280 0.9 2.6 0.00 0.00 0.00 89 1012.0
20260503233557 60 280 1.7 2.6 0.00 0.00 0.00 89 1012.0
20260503232556 59 300 0.9 4.3 0.00 0.00 0.00 83 1011.0
20260503231555 62 300 0.9 4.3 0.00 0.00 0.00 83 1011.0
20260503230554 65 300 1.7 4.3 0.00 0.00 0.00 83 1011.0
20260503225553 57 300 1.7 4.3 0.00 0.00 0.00 82 1011.0
20260503224552 57 300 1.7 4.3 0.00 0.00 0.00 82 1011.0
20260503223551 57 300 1.7 4.3 0.00 0.00 0.00 82 1011.0
20260503222550 59 307 2.6 4.3 0.00 0.00 0.00 82 1011.0
20260503221549 59 307 2.6 4.3 0.00 0.00 0.00 82 1011.0
20260503220549 59 307 2.6 4.3 0.00 0.00 0.00 82 1011.0
20260503215548 61 307 2.6 4.3 0.00 0.00 0.00 82 1011.0
20260503214547 61 307 2.6 4.3 0.00 0.00 0.00 82 1011.0
20260503213546 61 307 2.6 4.3 0.00 0.00 0.00 82 1011.0
20260503212545 62 309 2.6 4.3 0.00 0.00 0.00 75 1010.0
20260503211544 65 309 2.6 4.3 0.00 0.00 0.00 75 1010.0
20260503210543 68 309 2.6 4.3 0.00 0.00 0.00 75 1010.0
20260503205542 62 309 2.6 4.3 0.00 0.00 0.00 71 1010.0
20260503204541 62 309 2.6 4.3 0.00 0.00 0.00 71 1010.0
20260503203540 62 309 2.6 4.3 0.00 0.00 0.00 71 1010.0
20260503202539 64 303 2.6 3.5 0.00 0.00 0.00 71 1010.0
20260503201538 64 303 2.6 3.5 0.00 0.00 0.00 71 1010.0
20260503200537 64 303 2.6 3.5 0.00 0.00 0.00 71 1010.0
20260503195536 66 303 2.6 3.5 0.00 0.00 0.00 71 1010.0
20260503194535 66 303 2.6 3.5 0.00 0.00 0.00 71 1010.0
20260503193534 66 303 2.6 3.5 0.00 0.00 0.00 71 1010.0
20260503192533 68 290 1.7 2.6 0.00 0.00 0.00 71 1010.0
20260503191532 68 290 1.7 2.6 0.00 0.00 0.00 71 1010.0
20260503190531 68 290 1.7 2.6 0.00 0.00 0.00 71 1010.0
20260503185530 67 290 0.9 2.6 0.00 0.00 0.00 71 1010.0
20260503184529 70 290 1.7 2.6 0.00 0.00 0.00 71 1011.0
20260503183529 69 272 0.9 0.9 0.00 0.00 0.00 71 1011.0
20260503182528 72 272 0.9 1.7 0.00 0.00 0.00 71 1012.0
20260503181527 69 272 0.9 0.9 0.00 0.00 0.00 71 1012.0
20260503180526 72 272 0.9 1.7 0.00 0.00 0.00 71 1012.0
20260503175525 70 272 0.9 1.7 0.00 0.00 0.00 74 1012.0
20260503174524 73 272 0.0 0.9 0.00 0.00 0.00 74 1012.0
20260503173523 76 272 0.0 0.9 0.00 0.00 0.00 74 1012.0
20260503172522 69 108 0.0 0.9 0.00 0.00 0.00 77 1013.0
20260503171521 69 108 0.0 0.9 0.00 0.00 0.00 77 1013.0
20260503170520 68 108 0.0 0.9 0.00 0.00 0.00 77 1013.0